Monterey, CA

7:28 AM PDT on August 20, 2017 (GMT -0700)
Monterey Peninsula

Weather History for KMRY - January, 2014

Change the Weather History Date:

Monday, January 20, 2014

  Actual Average Record
Temperature  
Mean Temperature 52 °F 51 °F  
Max Temperature 66 °F 59 °F 77 °F (2013)
Min Temperature 38 °F 43 °F 35 °F (2007)
Degree Days  
Heating Degree Days 13    
Month to date heating degree days 186  
Since 1 July heating degree days 1401  
Cooling Degree Days 0    
Month to date cooling degree days 2  
Year to date cooling degree days 2  
Growing Degree Days 2 (Base 50)    
Moisture  
Dew Point 34 °F    
Average Humidity 52    
Maximum Humidity 82    
Minimum Humidity 22    
Precipitation  
Precipitation 0.00 in - 0.68 in (2017)
Month to date precipitation T  
Year to date precipitation T  
Since 1 July precipitation 1.28  
Sea Level Pressure  
Sea Level Pressure 30.18 in    
Wind  
Wind Speed 2 mph (ENE)    
Max Wind Speed 7 mph    
Max Gust Speed 8 mph    
Visibility 9 miles    
Events      
T = Trace of Precipitation, MM = Missing Value Source: NWS Daily Summary

Daily Weather History Graph

Daily Weather History Graph

Search for Another Location

Airport or City:

Trip Planner

Search our weather history database for the weather conditions in past years. The results will help you decide how hot, cold, wet, or windy it might be!

Date:

Astronomy

Jan. 20, 2014 Rise Set
Actual Time 7:16 AM PST 5:20 PM PST
Civil Twilight 6:48 AM PST 5:48 PM PST
Nautical Twilight 6:17 AM PST 6:19 PM PST
Astronomical Twilight 5:46 AM PST 6:50 PM PST
Moon 9:51 PM PST 9:27 AM PST
Length of Visible Light 10h 59m
Length of Day
10h 03m
Waning Gibbous, 82% of the Moon is Illuminated
Jan 20
Waning Gibbous
Jan 23
Last Quarter
Jan 30
New
Feb 6
First Quarter
Feb 14
Full

Hourly Weather History & Observations

Time (PST) Temp. Windchill Dew Point Humidity Pressure Visibility Wind Dir Wind Speed Gust Speed Precip Events Conditions
12:54 AM 43.0 °F 40.3 °F 24.1 °F 47% 30.15 in 10.0 mi East 4.6 mph - N/A   Clear
1:54 AM 41.0 °F 39.0 °F 27.0 °F 57% 30.15 in 10.0 mi East 3.5 mph - N/A   Clear
2:54 AM 41.0 °F 39.0 °F 26.1 °F 55% 30.16 in 10.0 mi East 3.5 mph - N/A   Clear
3:54 AM 41.0 °F - 21.9 °F 47% 30.15 in 10.0 mi Calm Calm - N/A   Clear
4:54 AM 41.0 °F 38.0 °F 21.9 °F 47% 30.15 in 10.0 mi East 4.6 mph - N/A   Clear
5:54 AM 41.0 °F - 24.1 °F 51% 30.16 in 10.0 mi Calm Calm - N/A   Clear
6:54 AM 39.0 °F 34.8 °F 21.9 °F 50% 30.17 in 10.0 mi East 5.8 mph - N/A   Clear
7:05 AM 39.2 °F 34.2 °F 21.2 °F 49% 30.13 in 10.0 mi East 6.9 mph - N/A   Scattered Clouds
7:14 AM 41.0 °F 37.1 °F 23.0 °F 49% 30.13 in 10.0 mi East 5.8 mph - N/A   Mostly Cloudy
7:51 AM 39.2 °F 37.0 °F 23.0 °F 52% 30.15 in 10.0 mi ENE 3.5 mph - N/A   Scattered Clouds
7:54 AM 39.9 °F 37.8 °F 23.0 °F 51% 30.19 in 10.0 mi East 3.5 mph - N/A   Scattered Clouds
8:54 AM 48.9 °F - 37.9 °F 66% 30.21 in 10.0 mi ENE 4.6 mph - N/A   Clear
9:45 AM 64.4 °F - 24.8 °F 22% 29.90 in 10.0 mi WSW 11.5 mph 17.3 mph N/A   Clear
9:54 AM 53.1 °F - 44.1 °F 71% 30.22 in 6.0 mi NNW 3.5 mph - N/A   Haze
10:54 AM 57.0 °F - 43.0 °F 59% 30.22 in 7.0 mi Calm Calm - N/A   Clear
11:54 AM 61.0 °F - 44.1 °F 54% 30.20 in 9.0 mi Calm Calm - N/A   Clear
12:54 PM 61.0 °F - 44.1 °F 54% 30.18 in 10.0 mi NW 3.5 mph - N/A   Clear
1:54 PM 64.9 °F - 45.0 °F 48% 30.16 in 10.0 mi NW 3.5 mph - N/A   Clear
2:54 PM 64.0 °F - 43.0 °F 46% 30.17 in 10.0 mi NW 3.5 mph - N/A   Clear
3:54 PM 64.0 °F - 45.0 °F 50% 30.18 in 10.0 mi NNW 3.5 mph - N/A   Clear
4:54 PM 57.9 °F - 48.9 °F 72% 30.19 in 8.0 mi Calm Calm - N/A   Clear
5:54 PM 54.0 °F - 46.9 °F 77% 30.19 in 10.0 mi Calm Calm - N/A   Clear
6:54 PM 51.1 °F - 44.1 °F 77% 30.22 in 10.0 mi Calm Calm - N/A   Clear
7:54 PM 46.0 °F 44.8 °F 37.0 °F 71% 30.23 in 10.0 mi East 3.5 mph - N/A   Clear
8:54 PM 46.9 °F - 41.0 °F 80% 30.25 in 10.0 mi Calm Calm - N/A   Clear
9:54 PM 46.0 °F 44.8 °F 36.0 °F 68% 30.26 in 10.0 mi East 3.5 mph - N/A   Clear
10:54 PM 46.9 °F - 33.1 °F 59% 30.27 in 10.0 mi Calm Calm - N/A   Clear
11:32 PM 44.6 °F - 33.8 °F 66% 30.23 in 10.0 mi Calm Calm - N/A   Scattered Clouds
11:41 PM 46.4 °F 45.2 °F 41.0 °F 81% 30.23 in 3.0 mi ESE 3.5 mph - N/A   Haze
11:54 PM 45.0 °F - 43.0 °F 93% 30.27 in 0.8 mi Calm Calm - N/A   Mist